CW4167 Weather Reports


Display with metric or nautical units.
time (UTC)temp
F
wind
direction
speed
MPH
gust
MPH
rain 1hr
in
rain 24hr
in
rain mn
in
humidity
%
barometer
mb
20210422230205 40 252 2.0 12.0 0.00 0.00 0.00 83 1016.6
20210422224205 41 263 4.0 13.0 0.00 0.00 0.00 82 1016.4
20210422223204 41 275 4.0 13.0 0.00 0.00 0.00 83 1016.4
20210422222704 41 261 6.0 15.0 0.00 0.00 0.00 82 1016.5
20210422221705 41 265 5.0 13.0 0.00 0.00 0.00 83 1016.5
20210422220204 41 264 2.0 12.0 0.00 0.00 0.00 82 1016.3
20210422215205 41 259 3.0 13.0 0.00 0.00 0.00 82 1016.3
20210422214204 41 260 2.0 12.0 0.00 0.00 0.00 81 1016.3
20210422213704 41 260 2.0 9.0 0.00 0.00 0.00 81 1016.3
20210422213204 41 266 1.0 9.0 0.00 0.00 0.00 80 1016.3
20210422212704 41 265 0.0 9.0 0.00 0.00 0.00 80 1016.3
20210422212205 41 262 5.0 14.0 0.00 0.00 0.00 80 1016.3
20210422211705 41 260 1.0 9.0 0.00 0.00 0.00 78 1016.3
20210422211204 41 260 2.0 12.0 0.00 0.00 0.00 78 1016.3
20210422210705 41 264 1.0 7.0 0.00 0.00 0.00 77 1016.2
20210422205705 41 265 0.0 12.0 0.00 0.00 0.00 75 1016.2
20210422205205 40 264 1.0 9.0 0.00 0.00 0.00 74 1016.1
20210422204705 40 254 1.0 12.0 0.00 0.00 0.00 73 1016.2
20210422204205 40 267 0.0 1.0 0.00 0.00 0.00 72 1016.2
20210422202705 40 217 0.0 0.0 0.00 0.00 0.00 70 1016.2
20210422202204 40 219 0.0 0.0 0.00 0.00 0.00 69 1016.2
20210422201705 40 221 0.0 3.0 0.00 0.00 0.00 69 1016.2
20210422195705 40 217 1.0 5.0 0.00 0.00 0.00 68 1016.1
20210422194704 41 228 0.0 0.0 0.00 0.00 0.00 67 1016.0
20210422194205 41 209 0.0 1.0 0.00 0.00 0.00 68 1016.0
20210422193705 41 217 0.0 3.0 0.00 0.00 0.00 67 1015.9
20210422193205 41 210 0.0 3.0 0.00 0.00 0.00 67 1015.9
20210422192704 41 227 0.0 1.0 0.00 0.00 0.00 67 1015.9
20210422191204 42 217 0.0 3.0 0.00 0.00 0.00 65 1015.8
20210422190204 42 223 0.0 3.0 0.00 0.00 0.00 63 1015.8
20210422185204 43 236 0.0 5.0 0.00 0.00 0.00 62 1015.8
20210422184705 43 225 0.0 1.0 0.00 0.00 0.00 60 1015.8
20210422184205 44 239 0.0 0.0 0.00 0.00 0.00 59 1015.7
20210422183204 45 242 0.0 0.0 0.00 0.00 0.00 58 1015.4
20210422182704 45 240 0.0 0.0 0.00 0.00 0.00 57 1015.4
20210422182205 45 242 0.0 5.0 0.00 0.00 0.00 56 1015.4
20210422181205 46 258 0.0 0.0 0.00 0.00 0.00 54 1015.4
20210422180704 47 269 0.0 0.0 0.00 0.00 0.00 53 1015.4
20210422180204 47 250 0.0 0.0 0.00 0.00 0.00 54 1015.4
20210422175705 47 271 0.0 1.0 0.00 0.00 0.00 52 1015.4
20210422174704 47 300 3.0 13.0 0.00 0.00 0.00 51 1015.4
20210422174204 48 307 7.0 13.0 0.00 0.00 0.00 51 1015.3
20210422173205 48 296 3.0 13.0 0.00 0.00 0.00 51 1015.3
20210422172705 48 303 6.0 15.0 0.00 0.00 0.00 50 1015.2
20210422171705 49 308 7.0 15.0 0.00 0.00 0.00 49 1015.2
20210422171204 49 308 6.0 15.0 0.00 0.00 0.00 48 1015.3
20210422170204 49 321 10.0 16.0 0.00 0.00 0.00 47 1015.1
20210422164204 51 313 13.0 22.0 0.00 0.00 0.00 45 1015.0
20210422163704 51 320 12.0 18.0 0.00 0.00 0.00 44 1015.0
20210422163204 51 305 10.0 17.0 0.00 0.00 0.00 45 1015.0
20210422162704 51 314 11.0 20.0 0.00 0.00 0.00 44 1015.0
20210422162204 51 319 7.0 17.0 0.00 0.00 0.00 44 1015.0
20210422161704 51 295 10.0 17.0 0.00 0.00 0.00 44 1014.9
20210422161204 51 295 8.0 16.0 0.00 0.00 0.00 45 1014.9
20210422160704 51 311 13.0 20.0 0.00 0.00 0.00 44 1014.9
20210422155204 51 319 9.0 16.0 0.00 0.00 0.00 48 1014.7
20210422154205 50 302 6.0 20.0 0.00 0.00 0.00 51 1014.7
20210422153704 50 310 10.0 20.0 0.00 0.00 0.00 47 1014.7
20210422153205 50 305 12.0 20.0 0.00 0.00 0.00 46 1014.7
20210422152705 50 313 11.0 22.0 0.00 0.00 0.00 48 1014.7
20210422152204 49 314 7.0 20.0 0.00 0.00 0.00 51 1014.6
20210422151704 50 333 12.0 18.0 0.00 0.00 0.00 52 1014.6
20210422150705 50 321 9.0 18.0 0.00 0.00 0.00 54 1014.5
20210422150205 49 313 10.0 20.0 0.00 0.00 0.00 53 1014.5
20210422145704 49 338 10.0 20.0 0.00 0.00 0.00 52 1014.5
20210422145205 49 329 12.0 20.0 0.00 0.00 0.00 53 1014.5
20210422142205 50 320 12.0 20.0 0.00 0.00 0.00 52 1014.3
20210422141204 50 309 12.0 20.0 0.00 0.00 0.00 52 1014.2
20210422140704 50 326 12.0 20.0 0.00 0.00 0.00 53 1014.2
20210422135704 51 314 14.0 22.0 0.00 0.00 0.00 49 1014.0
20210422135206 50 311 13.0 25.0 0.00 0.00 0.00 50 1014.0
20210422134705 50 292 15.0 22.0 0.00 0.00 0.00 51 1014.0
20210422133206 50 292 16.0 22.0 0.00 0.00 0.00 52 1013.9
20210422132706 50 300 16.0 24.0 0.00 0.00 0.00 51 1013.9
20210422132206 50 306 16.0 21.0 0.00 0.00 0.00 52 1013.9
20210422131206 50 321 15.0 24.0 0.00 0.00 0.00 50 1013.8
20210422130705 50 310 14.0 22.0 0.00 0.00 0.00 51 1013.8
20210422130206 51 325 14.0 24.0 0.00 0.00 0.00 50 1013.8
20210422125706 51 317 14.0 22.0 0.00 0.00 0.00 51 1013.8
20210422125206 51 318 15.0 23.0 0.00 0.00 0.00 50 1013.9
20210422124706 51 294 14.0 22.0 0.00 0.00 0.00 50 1013.8
20210422124206 51 303 10.0 25.0 0.00 0.00 0.00 50 1013.6
20210422123705 51 296 16.0 25.0 0.00 0.00 0.00 46 1013.6
20210422123206 51 302 13.0 23.0 0.00 0.00 0.00 47 1013.7
20210422122706 50 313 14.0 22.0 0.00 0.00 0.00 46 1013.6
20210422122206 50 307 14.0 21.0 0.00 0.00 0.00 47 1013.6
20210422121706 50 300 11.0 24.0 0.00 0.00 0.00 48 1013.6
20210422120706 50 310 13.0 22.0 0.00 0.00 0.00 47 1013.6
20210422120205 49 319 13.0 22.0 0.00 0.00 0.00 48 1013.5
20210422115705 48 332 11.0 25.0 0.00 0.00 0.00 49 1013.6
20210422114206 48 314 16.0 25.0 0.00 0.00 0.00 49 1013.5
20210422113705 49 321 15.0 26.0 0.00 0.00 0.00 53 1013.4
20210422113206 49 303 13.0 29.0 0.00 0.00 0.00 51 1013.3
20210422112706 49 318 14.0 25.0 0.00 0.00 0.00 52 1013.2
20210422112206 49 311 14.0 21.0 0.00 0.00 0.00 54 1013.2
20210422111705 48 298 16.0 24.0 0.00 0.00 0.00 53 1013.2
20210422111205 48 295 18.0 28.0 0.00 0.00 0.00 52 1013.2
20210422110206 48 280 14.0 23.0 0.00 0.00 0.00 53 1013.0
20210422105206 48 297 18.0 26.0 0.00 0.00 0.00 54 1013.0
20210422104705 48 296 17.0 26.0 0.00 0.00 0.00 53 1013.0
20210422104205 48 291 14.0 22.0 0.00 0.00 0.00 51 1012.9
20210422103705 49 296 18.0 24.0 0.00 0.00 0.00 51 1012.9
20210422103205 49 290 13.0 22.0 0.00 0.00 0.00 50 1012.8
20210422102705 49 288 14.0 25.0 0.00 0.00 0.00 50 1012.8
20210422102205 50 290 17.0 30.0 0.00 0.00 0.00 48 1012.8
20210422101205 50 298 17.0 28.0 0.00 0.00 0.00 50 1012.8
20210422100705 50 286 18.0 32.0 0.00 0.00 0.00 47 1012.8
20210422100206 50 271 16.0 26.0 0.00 0.00 0.00 51 1012.8
20210422095205 50 284 13.0 21.0 0.00 0.00 0.00 50 1012.7
20210422094705 50 298 14.0 30.0 0.00 0.00 0.00 50 1012.7
20210422093205 49 294 13.0 24.0 0.00 0.00 0.00 51 1012.7
20210422092706 49 281 18.0 26.0 0.00 0.00 0.00 51 1012.7
20210422092206 49 284 16.0 24.0 0.00 0.00 0.00 50 1012.7
20210422091705 49 296 16.0 25.0 0.00 0.00 0.00 52 1012.6
20210422091206 49 302 14.0 29.0 0.00 0.00 0.00 52 1012.5
20210422090705 49 313 17.0 28.0 0.00 0.00 0.00 53 1012.5
20210422090205 49 304 17.0 26.0 0.00 0.00 0.00 53 1012.5
20210422085705 49 301 22.0 28.0 0.00 0.00 0.00 52 1012.6
20210422084705 48 290 16.0 28.0 0.00 0.00 0.00 54 1012.5
20210422082705 49 292 21.0 35.0 0.00 0.00 0.00 52 1012.4
20210422082205 48 297 14.0 26.0 0.00 0.00 0.00 55 1012.3
20210422081205 47 304 16.0 26.0 0.00 0.00 0.00 53 1012.2
20210422080705 48 312 18.0 30.0 0.00 0.00 0.00 51 1012.2
20210422080205 48 289 21.0 31.0 0.00 0.00 0.00 52 1012.1
20210422075705 47 289 19.0 26.0 0.00 0.00 0.00 56 1012.1
20210422075205 46 302 20.0 29.0 0.00 0.00 0.00 55 1012.1
20210422074705 46 299 16.0 32.0 0.00 0.00 0.00 54 1011.9
20210422074205 47 302 23.0 32.0 0.00 0.00 0.00 54 1011.9
20210422073705 46 293 17.0 26.0 0.00 0.00 0.00 58 1011.9
20210422073206 46 292 17.0 32.0 0.00 0.00 0.00 56 1011.8
20210422072206 46 315 16.0 33.0 0.00 0.00 0.00 58 1011.7
20210422071205 46 299 19.0 31.0 0.00 0.00 0.00 56 1011.5
20210422070206 46 298 22.0 30.0 0.00 0.00 0.00 57 1011.5
20210422065705 46 303 13.0 23.0 0.00 0.00 0.00 63 1011.5
20210422064705 45 295 17.0 23.0 0.00 0.00 0.00 63 1011.4
20210422064205 45 284 13.0 20.0 0.00 0.00 0.00 64 1011.4
20210422063705 46 284 16.0 26.0 0.00 0.00 0.00 62 1011.2
20210422063205 46 292 15.0 26.0 0.00 0.00 0.00 62 1011.2
20210422061706 45 282 13.0 22.0 0.00 0.00 0.00 64 1011.2
20210422061205 45 296 12.0 20.0 0.00 0.00 0.00 64 1011.1
20210422060205 45 285 16.0 20.0 0.00 0.00 0.00 64 1011.0
20210422055705 45 295 17.0 29.0 0.00 0.00 0.00 65 1010.8
20210422054705 44 282 14.0 22.0 0.00 0.00 0.00 66 1010.8
20210422054205 44 295 10.0 21.0 0.00 0.00 0.00 67 1010.8
20210422053705 44 276 14.0 20.0 0.00 0.00 0.00 67 1010.7
20210422053205 43 279 9.0 18.0 0.00 0.00 0.00 69 1010.7
20210422052205 42 284 14.0 21.0 0.00 0.00 0.00 70 1010.6
20210422051705 42 274 13.0 21.0 0.00 0.00 0.00 71 1010.3
20210422051205 42 278 13.0 21.0 0.00 0.00 0.00 71 1010.3
20210422050706 41 277 13.0 21.0 0.00 0.00 0.00 72 1010.3
20210422045705 41 271 13.0 21.0 0.00 0.00 0.00 73 1010.3
20210422045206 41 282 10.0 21.0 0.00 0.00 0.00 73 1010.3
20210422043705 41 275 9.0 20.0 0.00 0.00 0.00 75 1010.1
20210422042706 40 272 12.0 18.0 0.00 0.00 0.00 75 1010.0
20210422041205 40 271 12.0 18.0 0.00 0.00 0.00 76 1009.9
20210422040705 40 274 8.0 16.0 0.00 0.00 0.00 76 1009.9
20210422035705 40 278 7.0 17.0 0.00 0.00 0.00 77 1009.8
20210422035205 40 273 9.0 16.0 0.00 0.00 0.00 77 1009.7
20210422034705 40 278 10.0 18.0 0.00 0.00 0.00 77 1009.6
20210422034205 40 277 9.0 22.0 0.00 0.00 0.00 78 1009.6
20210422033705 40 270 6.0 15.0 0.00 0.00 0.00 78 1009.6
20210422033205 40 278 10.0 18.0 0.00 0.00 0.00 78 1009.5
20210422032705 40 280 9.0 17.0 0.00 0.00 0.00 78 1009.4
20210422032205 40 283 9.0 20.0 0.00 0.00 0.00 78 1009.4
20210422031705 40 275 11.0 20.0 0.00 0.00 0.00 78 1009.4
20210422031205 40 275 9.0 14.0 0.00 0.00 0.00 78 1009.4
20210422030705 40 275 9.0 14.0 0.00 0.00 0.00 78 1009.4
20210422030205 40 262 11.0 17.0 0.00 0.00 0.00 78 1009.4
20210422025705 40 274 7.0 16.0 0.00 0.00 0.00 78 1009.4
20210422025205 40 274 6.0 15.0 0.00 0.00 0.00 77 1009.4
20210422024705 40 276 9.0 18.0 0.00 0.00 0.00 77 1009.4
20210422024205 40 270 9.0 16.0 0.00 0.00 0.00 77 1009.4
20210422023705 40 273 7.0 17.0 0.00 0.00 0.00 78 1009.4
20210422023205 40 275 5.0 16.0 0.00 0.00 0.00 78 1009.3
20210422021205 40 275 7.0 16.0 0.00 0.00 0.00 79 1009.2
20210422020705 41 271 10.0 18.0 0.00 0.00 0.00 79 1009.2
20210422015205 41 273 7.0 16.0 0.00 0.00 0.00 79 1009.0
20210422014205 41 268 10.0 15.0 0.00 0.00 0.00 79 1009.0
20210422012705 41 278 8.0 18.0 0.00 0.00 0.00 79 1008.9
20210422010205 42 266 12.0 18.0 0.00 0.00 0.00 80 1008.8
20210422005705 42 279 10.0 18.0 0.00 0.00 0.00 80 1008.8
20210422004705 42 270 12.0 20.0 0.00 0.00 0.00 80 1008.7
20210422004205 42 266 11.0 20.0 0.00 0.00 0.00 80 1008.7
20210422003705 42 271 7.0 20.0 0.00 0.00 0.00 80 1008.7
20210422003204 42 269 9.0 22.0 0.00 0.00 0.00 80 1008.7
20210422002705 42 273 10.0 20.0 0.00 0.00 0.00 80 1008.7
20210422001704 42 284 8.0 18.0 0.00 0.00 0.00 81 1008.7
20210422001205 42 267 11.0 18.0 0.00 0.00 0.00 81 1008.5
20210422000705 42 269 11.0 21.0 0.00 0.00 0.00 81 1008.5
20210421235705 42 264 11.0 21.0 0.00 0.00 0.00 81 1008.4
20210421235205 41 264 11.0 18.0 0.00 0.00 0.00 82 1008.6
20210421234705 41 274 12.0 20.0 0.00 0.00 0.00 82 1008.6
20210421233204 41 263 12.0 20.0 0.00 0.00 0.00 82 1008.5
20210421232205 41 267 7.0 16.0 0.00 0.00 0.00 82 1008.5
20210421231705 41 258 10.0 17.0 0.00 0.00 0.00 82 1008.4
20210421231205 41 263 8.0 17.0 0.00 0.00 0.00 82 1008.4
20210421230704 41 257 10.0 18.0 0.00 0.00 0.00 82 1008.4